Regional Weather Roundup
Issued by NWS

Home | Current Version | Previous Version | Text Only | Print | Product List | Glossary On
Versions: 1 2 3 4 5 6 7 8 9 10 11 12 13 14 15 16 17 18 19 20 21 22 23 24 25 26 27 28 29 30 31 32 33 34 35 36 37 38 39 40 41 42 43 44 45 46 47 48 49 50
000
ASUS43 KDTX 281101
RWRMI
MICHIGAN HOURLY REGIONAL WEATHER ROUNDUP
NATIONAL WEATHER SERVICE DETROIT/PONTIAC MI
700 AM EDT TUE JUL 28 2015

NOTE: "FAIR" INDICATES FEW OR NO CLOUDS BELOW 12,000 FEET WITH NO
SIGNIFICANT WEATHER AND/OR OBSTRUCTION TO VISIBILITY.

MIZ047>049-052>055-059>063-066>070-074>076-081>083-281200-
SOUTHEAST LOWER MICHIGAN

CITY           SKY/WX    TMP DP  RH WIND       PRES   REMARKS
ADRIAN         CLEAR     62  60  93 CALM      30.05R
ALMA             N/A     61  60  99 CALM      30.05R FOG
ANN ARBOR      FOG       59  58  96 CALM      30.04S VSB 1/2
BAD AXE        CLEAR     60  59  96 CALM      30.05R
CARO           CLEAR     61  61  99 CALM      30.04R FOG
DETROIT CITY   CLEAR     68  63  84 CALM      30.05R
DETROIT        PTCLDY    70  64  81 CALM      30.05R
FLINT          CLEAR     65  61  87 CALM      30.06R
GROSSE ILE     CLEAR     66  63  88 CALM      30.03R
HILLSDALE      CLEAR     61  61 100 CALM      30.06R
HOWELL         CLEAR     62  61  96 CALM      30.06R FOG

CITY           SKY/WX    TMP DP  RH WIND       PRES   REMARKS
JACKSON        FOG       62  60  93 CALM      30.06R VSB 1/4
LAMBERTVILLE   CLEAR     64  61  91 CALM      30.04R FOG
LANSING        CLEAR     64  62  93 CALM      30.06R
LAPEER         FAIR      58  58 100 CALM      30.06R FOG
MASON          CLEAR     59  59  99 CALM      30.06R FOG
MONROE         CLEAR     62  62  99 CALM      30.04R FOG
MT. CLEMENS    CLEAR     66  62  89 N1        30.02R
PONTIAC        CLEAR     66  64  93 CALM      30.05R
PORT HOPE        N/A     65  63  93 CALM      30.02R
PORT HURON       N/A     59  59 100 CALM      30.05R FOG
TRI CITIES     CLEAR     68  63  84 W5        30.04R
MIDLAND        FAIR      62  61  97 CALM      30.04R
TROY           CLEAR     69  64  82 CALM      30.06R
SAGINAW HB     CLEAR     64  63  94 CALM      30.04R
$$
MIZ043>046-050>051-056>058-064>065-071>073-077>080-281200-
SOUTHWEST LOWER MICHIGAN

CITY           SKY/WX    TMP DP  RH WIND       PRES   REMARKS
BATTLE CREEK   CLEAR     64  61  90 CALM      30.05S
BENTON HARBOR  CLEAR     61  59  93 E3        30.01S
BIG RAPIDS     CLEAR     62  59  93 CALM      30.05R
COLDWATER      CLEAR     59  58  98 CALM      30.04S FOG
FREMONT        FAIR      61  61  99 E3        30.03R
HOLLAND        FOG       64  62  93 CALM      30.04R VSB 1/4
GRAND RAPIDS   PTCLDY    65  62  90 CALM      30.05R
IONIA          FAIR      64  63  96 S3        30.04R
KALAMAZOO      CLEAR     64  61  90 CALM      30.04S
LUDINGTON      CLEAR     58  56  93 CALM      30.02S
MARSHALL       PTCLDY    59  58  97 CALM      30.05R FOG
MOUNT PLEASANT FOG       62  61  96 CALM      30.04R VSB 3/4
MUSKEGON       PTCLDY    65  60  84 CALM      30.03S
SOUTH HAVEN    CLEAR     63  62  94 E5        30.02S FOG
$$
MIZ016>042-281200-
NORTHERN LOWER MICHIGAN

CITY           SKY/WX    TMP DP  RH WIND       PRES   REMARKS
ALPENA         CLEAR     64  61  90 W3        30.05R
BEAVER ISLAND  PTCLDY    59  58  96 CALM      30.03S
BELLAIRE       PTCLDY    57  56  96 CALM      30.04R FOG
CADILLAC       CLEAR     57  56  95 CALM      30.05S
CHARLEVOIX     PTCLDY    64  61  90 CALM      30.06S
FRANKFORT      CLEAR     59  57  94 CALM      30.02R
GAYLORD        CLEAR     61  58  90 CALM      30.07R
GRAYLING       FOG       56  55  96 CALM      30.08R VSB 3/4
HARBOR SPRINGS CLEAR     61  59  91 CALM      30.04S
HOUGHTON LAKE  CLEAR     58  56  93 E3        30.07R FOG
MANISTEE       CLEAR     59  55  88 SE3       30.03R
OSCODA         CLEAR     61  58  91 N3        30.03R
PELLSTON       CLEAR     56  54  93 CALM      30.05R
ROGERS CITY    CLEAR     66  61  82 W3        30.05R
TRAVERSE CITY  PTCLDY    63  59  87 CALM      30.02R
$$
MIZ007>008-015-281200-
EASTERN UPPER MICHIGAN

CITY           SKY/WX    TMP DP  RH WIND       PRES   REMARKS
KINROSS        CLEAR     64  64 100 CALM      30.04S
MACKINAC ISLAN PTCLDY    66  62  87 CALM      30.04R
$$
MIZ004>006-011>014-085-281200-
CENTRAL UPPER MICHIGAN

CITY           SKY/WX    TMP DP  RH WIND       PRES   REMARKS
ESCANABA       CLOUDY    54  54 100 CALM      30.00S VSB<1/4
MENOMINEE      CLEAR     61  57  88 CALM      29.99S
SAWYER-GWINN   CLEAR     61  59  94 CALM      30.01F
$$
MIZ001>003-009>011-084-281200-
WESTERN UPPER MICHIGAN

CITY           SKY/WX    TMP DP  RH WIND       PRES   REMARKS
IRON MOUNTAIN  CLEAR     59  58  96 S5        30.00S FOG
HOUGHTON       CLEAR     64  62  93 S5        29.95F
COPPER HARBOR    N/A     70  62  76 W7        29.94S
IRONWOOD       CLEAR     70  63  78 SE8       29.91S
$$

ABBREVIATIONS USED IN REMARKS
   TC - TEMPERATURE IN CELSIUS
  WCI - WIND CHILL INDEX
   HX - HEAT INDEX
  VSB - VISIBILITY




USA.gov is the U.S. government's official web portal to all federal, state and local government web resources and services.